Ann Arbor, MI

4:01 PM EDT on August 20, 2017 (GMT -0400)
Ann Arbor Municipal

Weather History for KARB - July, 2013

Change the Weather History Date:

Friday, July 19, 2013

  Actual Average Record
Temperature  
Mean Temperature 83 °F -  
Max Temperature 93 °F 80 °F 93 °F (2011)
Min Temperature 75 °F 55 °F 45 °F (2003)
Cooling Degree Days 18    
Growing Degree Days 33 (Base 50)    
Moisture  
Dew Point 72 °F    
Average Humidity 70    
Maximum Humidity 91    
Minimum Humidity 52    
Precipitation  
Precipitation 0.00 in - - ()
Sea Level Pressure  
Sea Level Pressure 29.83 in    
Wind  
Wind Speed 10 mph (WSW)    
Max Wind Speed 23 mph    
Max Gust Speed 28 mph    
Visibility 10 miles    
Events Thunderstorm    
Averages and records for this station are not official NWS values.
T = Trace of Precipitation, MM = Missing Value Source: NWS Daily Summary

Daily Weather History Graph

Daily Weather History Graph

Search for Another Location

Airport or City:

Trip Planner

Search our weather history database for the weather conditions in past years. The results will help you decide how hot, cold, wet, or windy it might be!

Date:

Astronomy

Jul. 19, 2013 Rise Set
Actual Time 6:15 AM EDT 9:06 PM EDT
Civil Twilight 5:42 AM EDT 9:39 PM EDT
Nautical Twilight 5:00 AM EDT 10:21 PM EDT
Astronomical Twilight 4:12 AM EDT 11:09 PM EDT
Moon 6:07 PM EDT (7/19) 2:56 AM EDT (7/19)
Length of Visible Light 15h 56m
Length of Day
14h 50m
Waxing Gibbous, 86% of the Moon is Illuminated
Jul 19
Waxing Gibbous
Jul 22
Full
Jul 29
Last Quarter
Aug 6
New
Aug 14
First Quarter

Hourly Weather History & Observations

Time (EDT) Temp. Heat Index Dew Point Humidity Pressure Visibility Wind Dir Wind Speed Gust Speed Precip Events Conditions
12:53 AM 77.0 °F - 73.0 °F 88% 29.97 in 10.0 mi WSW 5.8 mph - N/A   Clear
1:53 AM 77.0 °F - 73.0 °F 88% 29.95 in 10.0 mi WSW 5.8 mph - N/A   Clear
2:53 AM 75.9 °F - 72.0 °F 87% 29.94 in 10.0 mi WSW 6.9 mph - N/A   Clear
3:53 AM 75.9 °F - 72.0 °F 87% 29.91 in 10.0 mi WSW 4.6 mph - N/A   Clear
4:53 AM 75.9 °F - 72.0 °F 87% 29.90 in 9.0 mi WSW 5.8 mph - N/A   Clear
5:53 AM 75.9 °F - 73.0 °F 91% 29.90 in 9.0 mi SW 9.2 mph - N/A   Clear
6:53 AM 75.9 °F - 73.0 °F 91% 29.90 in 7.0 mi SW 10.4 mph - N/A   Clear
7:53 AM 78.1 °F - 73.0 °F 84% 29.90 in 8.0 mi SW 8.1 mph - N/A   Clear
8:53 AM 81.0 °F 86.2 °F 73.9 °F 79% 29.90 in 9.0 mi WSW 10.4 mph - N/A   Clear
9:53 AM 84.9 °F 92.1 °F 73.9 °F 69% 29.90 in 10.0 mi WSW 12.7 mph - N/A   Clear
10:53 AM 87.1 °F 95.4 °F 73.9 °F 65% 29.89 in 10.0 mi WSW 15.0 mph 23.0 mph N/A   Partly Cloudy
11:53 AM 89.1 °F 98.0 °F 73.9 °F 61% 29.87 in 10.0 mi WSW 15.0 mph 21.9 mph N/A   Partly Cloudy
12:53 PM 90.0 °F 97.9 °F 73.0 °F 57% 29.85 in 10.0 mi WSW 17.3 mph 27.6 mph N/A   Partly Cloudy
1:53 PM 91.9 °F 101.3 °F 73.9 °F 55% 29.83 in 10.0 mi WSW 13.8 mph 25.3 mph N/A   Partly Cloudy
2:53 PM 91.9 °F 99.5 °F 72.0 °F 52% 29.80 in 10.0 mi West 23.0 mph 27.6 mph N/A   Scattered Clouds
3:53 PM 91.9 °F 99.5 °F 72.0 °F 52% 29.77 in 10.0 mi WSW 15.0 mph 27.6 mph N/A   Partly Cloudy
4:53 PM 91.9 °F 99.5 °F 72.0 °F 52% 29.76 in 10.0 mi WSW 16.1 mph 23.0 mph N/A   Clear
5:53 PM 91.0 °F 97.6 °F 71.1 °F 52% 29.75 in 10.0 mi West 18.4 mph 26.5 mph N/A   Clear
6:30 PM 89.6 °F 96.2 °F 71.6 °F 55% 29.77 in 10.0 mi WSW 13.8 mph 21.9 mph N/A Thunderstorm Thunderstorm
6:51 PM 87.8 °F 93.8 °F 71.6 °F 58% 29.76 in 10.0 mi WSW 16.1 mph 20.7 mph N/A   Scattered Clouds
6:53 PM 89.1 °F 95.0 °F 71.1 °F 55% 29.74 in 10.0 mi WSW 13.8 mph 20.7 mph N/A   Scattered Clouds
7:53 PM 87.1 °F 93.6 °F 72.0 °F 61% 29.75 in 10.0 mi SW 12.7 mph - N/A Thunderstorm Scattered Clouds
8:53 PM 82.0 °F 86.7 °F 72.0 °F 71% 29.74 in 10.0 mi SW 5.8 mph - N/A   Scattered Clouds
9:07 PM 82.4 °F 87.2 °F 71.6 °F 70% 29.76 in 10.0 mi SW 6.9 mph - N/A Thunderstorm Mostly Cloudy
9:53 PM 81.0 °F 84.1 °F 69.1 °F 67% 29.74 in 10.0 mi SW 10.4 mph - N/A Thunderstorm Mostly Cloudy
10:07 PM 80.6 °F 83.9 °F 69.8 °F 70% 29.76 in 10.0 mi SW 9.2 mph - N/A   Scattered Clouds
10:53 PM 79.0 °F - 72.0 °F 79% 29.74 in 10.0 mi WSW 8.1 mph - N/A   Scattered Clouds
11:53 PM 81.0 °F 85.8 °F 73.0 °F 77% 29.74 in 10.0 mi WSW 9.2 mph - N/A   Partly Cloudy